Time,TemperatureF,DewpointF,PressureIn,WindDirection,WindDirectionDegrees,WindSpeedMPH,WindSpeedGustMPH,Humidity,HourlyPrecipIn,Conditions,Clouds,dailyrainin,SoftwareType,DateUTC
2013-07-13 18:19:00,85.7,61.8,29.63,SE,135,1.3,1.3,45,0.00,,,0.00,WUHU216HW,2013-07-13 23:19:00,
2013-07-13 18:24:00,86.6,61.4,29.63,ESE,113,2.5,4.3,43,0.00,,,0.00,WUHU216HW,2013-07-13 23:24:00,
2013-07-13 18:29:00,86.2,61.1,29.63,SE,135,4.0,4.3,43,0.00,,,0.00,WUHU216HW,2013-07-13 23:29:00,
2013-07-13 18:34:00,85.0,60.6,29.63,SE,135,2.9,4.0,44,0.00,,,0.00,WUHU216HW,2013-07-13 23:34:00,
2013-07-13 18:39:00,83.9,60.8,29.62,ESE,113,3.4,3.4,46,0.00,,,0.00,WUHU216HW,2013-07-13 23:39:00,
2013-07-13 18:44:00,83.0,60.6,29.62,ENE,68,2.2,4.0,47,0.00,,,0.00,WUHU216HW,2013-07-13 23:44:00,
2013-07-13 18:49:00,83.2,61.4,29.63,East,90,1.1,4.0,48,0.00,,,0.00,WUHU216HW,2013-07-13 23:49:00,
2013-07-13 18:54:00,84.2,61.8,29.63,ESE,113,0.9,3.6,47,0.00,,,0.00,WUHU216HW,2013-07-13 23:54:00,
2013-07-13 18:59:00,84.6,61.6,29.63,NE,45,4.0,4.0,46,0.00,,,0.00,WUHU216HW,2013-07-13 23:59:00,
2013-07-13 19:04:00,83.3,61.6,29.63,ENE,68,0.9,4.0,48,0.00,,,0.00,WUHU216HW,2013-07-14 00:04:00,
2013-07-13 19:09:00,82.4,61.3,29.63,ESE,113,3.4,3.4,49,0.00,,,0.00,WUHU216HW,2013-07-14 00:09:00,
2013-07-13 19:14:00,82.1,61.6,29.63,ENE,68,2.0,5.4,50,0.00,,,0.00,WUHU216HW,2013-07-14 00:14:00,
2013-07-13 19:20:00,82.4,61.3,29.63,SSE,158,1.8,2.0,49,0.00,,,0.00,WUHU216HW,2013-07-14 00:20:00,
2013-07-13 19:25:00,81.9,60.9,29.63,NE,45,1.1,3.4,49,0.00,,,0.00,WUHU216HW,2013-07-14 00:25:00,
2013-07-13 19:30:00,81.4,60.9,29.63,SSE,158,1.8,3.4,50,0.00,,,0.00,WUHU216HW,2013-07-14 00:30:00,
2013-07-13 19:35:00,81.7,61.3,29.63,East,90,2.0,3.1,50,0.00,,,0.00,WUHU216HW,2013-07-14 00:35:00,
2013-07-13 19:40:00,82.8,62.3,29.63,SE,135,1.6,3.1,50,0.00,,,0.00,WUHU216HW,2013-07-14 00:40:00,
2013-07-13 19:45:00,83.0,61.8,29.63,NW,315,2.0,2.5,49,0.00,,,0.00,WUHU216HW,2013-07-14 00:45:00,
2013-07-13 19:50:00,82.3,61.7,29.63,ESE,113,2.0,2.5,50,0.00,,,0.00,WUHU216HW,2013-07-14 00:50:00,
2013-07-13 19:55:00,81.5,61.7,29.63,ESE,113,1.6,2.5,51,0.00,,,0.00,WUHU216HW,2013-07-14 00:55:00,
2013-07-13 20:00:00,81.7,61.8,29.63,SE,135,2.2,2.9,51,0.00,,,0.00,WUHU216HW,2013-07-14 01:00:00,
2013-07-13 20:05:00,82.4,61.3,29.63,East,90,1.1,2.9,49,0.00,,,0.00,WUHU216HW,2013-07-14 01:05:00,
2013-07-13 20:10:00,81.4,61.5,29.63,NE,45,0.7,1.8,51,0.00,,,0.00,WUHU216HW,2013-07-14 01:10:00,
2013-07-13 20:18:00,80.3,61.6,29.63,ESE,113,0.9,1.3,53,0.00,,,0.00,WUHU216HW,2013-07-14 01:18:00,
2013-07-13 20:23:00,81.4,62.0,29.63,ESE,113,1.1,1.8,52,0.00,,,0.00,WUHU216HW,2013-07-14 01:23:00,
2013-07-13 20:28:00,81.4,61.5,29.63,NE,45,1.6,1.8,51,0.00,,,0.00,WUHU216HW,2013-07-14 01:28:00,
2013-07-13 20:33:00,80.3,61.0,29.64,ESE,113,1.8,1.8,52,0.00,,,0.00,WUHU216HW,2013-07-14 01:33:00,
2013-07-13 20:38:00,79.2,61.1,29.64,SE,135,0.7,1.8,54,0.00,,,0.00,WUHU216HW,2013-07-14 01:38:00,
2013-07-13 20:43:00,79.6,61.9,29.64,East,90,0.4,2.5,55,0.00,,,0.00,WUHU216HW,2013-07-14 01:43:00,
2013-07-13 20:48:00,80.3,62.1,29.64,ESE,113,0.4,2.5,54,0.00,,,0.00,WUHU216HW,2013-07-14 01:48:00,
2013-07-13 20:53:00,79.7,61.6,29.64,East,90,1.3,1.3,54,0.00,,,0.00,WUHU216HW,2013-07-14 01:53:00,
2013-07-13 20:58:00,78.8,61.3,29.64,ENE,68,0.2,1.3,55,0.00,,,0.00,WUHU216HW,2013-07-14 01:58:00,
2013-07-13 21:03:00,79.0,62.0,29.65,East,90,0.4,0.9,56,0.00,,,0.00,WUHU216HW,2013-07-14 02:03:00,
2013-07-13 21:08:00,80.3,62.6,29.65,East,90,0.0,0.9,55,0.00,,,0.00,WUHU216HW,2013-07-14 02:08:00,
2013-07-13 21:13:00,80.6,61.8,29.65,NE,45,1.3,2.2,53,0.00,,,0.00,WUHU216HW,2013-07-14 02:13:00,
2013-07-13 21:18:00,79.2,61.7,29.65,ENE,68,1.1,2.2,55,0.00,,,0.00,WUHU216HW,2013-07-14 02:18:00,
2013-07-13 21:23:00,78.1,61.7,29.66,East,90,0.4,1.1,57,0.00,,,0.00,WUHU216HW,2013-07-14 02:23:00,
2013-07-13 21:28:00,78.7,62.6,29.66,East,90,0.4,1.3,58,0.00,,,0.00,WUHU216HW,2013-07-14 02:28:00,
2013-07-13 21:33:00,79.7,62.7,29.66,ENE,68,0.4,2.2,56,0.00,,,0.00,WUHU216HW,2013-07-14 02:33:00,
2013-07-13 21:38:00,79.4,62.3,29.66,SE,135,0.4,2.2,56,0.00,,,0.00,WUHU216HW,2013-07-14 02:38:00,
2013-07-13 21:43:00,78.1,62.2,29.66,ENE,68,0.7,2.5,58,0.00,,,0.00,WUHU216HW,2013-07-14 02:43:00,
2013-07-13 21:48:00,77.4,61.9,29.66,ESE,113,1.1,2.5,59,0.00,,,0.00,WUHU216HW,2013-07-14 02:48:00,
2013-07-13 21:53:00,76.7,62.2,29.66,East,90,0.7,1.8,61,0.00,,,0.00,WUHU216HW,2013-07-14 02:53:00,
2013-07-13 21:58:00,76.5,62.5,29.66,SSE,158,1.8,2.2,62,0.00,,,0.00,WUHU216HW,2013-07-14 02:58:00,
2013-07-13 22:03:00,77.0,63.0,29.66,NNE,23,1.8,3.4,62,0.00,,,0.00,WUHU216HW,2013-07-14 03:03:00,
2013-07-13 22:08:00,77.8,62.8,29.66,SE,135,0.9,3.4,60,0.00,,,0.00,WUHU216HW,2013-07-14 03:08:00,
2013-07-13 22:13:00,76.9,62.4,29.66,SE,135,1.1,1.8,61,0.00,,,0.00,WUHU216HW,2013-07-14 03:13:00,
2013-07-13 22:18:00,76.3,62.4,29.66,SE,135,1.1,1.6,62,0.00,,,0.00,WUHU216HW,2013-07-14 03:18:00,
2013-07-13 22:23:00,76.0,62.9,29.66,NE,45,2.5,2.5,64,0.00,,,0.00,WUHU216HW,2013-07-14 03:23:00,
2013-07-13 22:28:00,75.8,62.7,29.66,ESE,113,1.6,2.5,64,0.00,,,0.00,WUHU216HW,2013-07-14 03:28:00,
2013-07-13 22:33:00,75.6,62.6,29.66,ESE,113,0.9,1.8,64,0.00,,,0.00,WUHU216HW,2013-07-14 03:33:00,
2013-07-13 22:38:00,75.4,62.8,29.66,NE,45,1.1,2.5,65,0.00,,,0.00,WUHU216HW,2013-07-14 03:38:00,
2013-07-13 22:43:00,75.8,63.2,29.66,SE,135,1.6,2.5,65,0.00,,,0.00,WUHU216HW,2013-07-14 03:43:00,
2013-07-13 22:48:00,76.3,63.2,29.66,ENE,68,1.1,2.5,64,0.00,,,0.00,WUHU216HW,2013-07-14 03:48:00,
2013-07-13 22:53:00,76.0,62.9,29.66,ENE,68,0.9,1.8,64,0.00,,,0.00,WUHU216HW,2013-07-14 03:53:00,
2013-07-13 22:58:00,75.2,62.6,29.66,ENE,68,1.1,2.2,65,0.00,,,0.00,WUHU216HW,2013-07-14 03:58:00,
2013-07-13 23:01:00,75.2,63.1,29.66,SSE,158,1.8,2.2,66,0.00,,,0.00,WUHU216HW,2013-07-14 04:01:00,
2013-07-13 23:02:00,75.2,63.1,29.66,SE,135,2.0,2.2,66,0.00,,,0.00,WUHU216HW,2013-07-14 04:02:00,
2013-07-13 23:07:00,74.9,62.7,29.66,ENE,68,0.7,2.7,66,0.00,,,0.00,WUHU216HW,2013-07-14 04:07:00,
2013-07-13 23:12:00,74.7,62.6,29.66,East,90,0.9,2.7,66,0.00,,,0.00,WUHU216HW,2013-07-14 04:12:00,
2013-07-13 23:17:00,74.7,62.6,29.66,SE,135,1.6,2.5,66,0.00,,,0.00,WUHU216HW,2013-07-14 04:17:00,
2013-07-13 23:22:00,74.5,62.8,29.66,ESE,113,1.3,3.1,67,0.00,,,0.00,WUHU216HW,2013-07-14 04:22:00,
2013-07-13 23:27:00,74.3,62.6,29.66,SE,135,1.1,3.1,67,0.00,,,0.00,WUHU216HW,2013-07-14 04:27:00,
2013-07-13 23:32:00,74.0,62.8,29.66,East,90,2.2,2.5,68,0.00,,,0.00,WUHU216HW,2013-07-14 04:32:00,
2013-07-13 23:37:00,73.8,62.7,29.66,ESE,113,1.6,2.5,68,0.00,,,0.00,WUHU216HW,2013-07-14 04:37:00,
2013-07-13 23:41:00,73.8,62.7,29.66,ESE,113,0.4,1.8,68,0.00,,,0.00,WUHU216HW,2013-07-14 04:41:00,
2013-07-13 23:46:00,73.8,63.1,29.66,SE,135,1.1,2.2,69,0.00,,,0.00,WUHU216HW,2013-07-14 04:46:00,
2013-07-13 23:52:00,73.6,62.9,29.66,ENE,68,1.8,2.7,69,0.00,,,0.00,WUHU216HW,2013-07-14 04:52:00,
2013-07-13 23:57:00,73.4,62.7,29.66,ESE,113,1.6,2.7,69,0.00,,,0.00,WUHU216HW,2013-07-14 04:57:00,